Miscellaneous Local Product
Issued by NWS Hastings, NE

Home | Current Version | Previous Version | Graphics & Text | Print | Product List | Glossary On
Versions: 1 2 3 4 5 6 7 8 9 10 11 12 13 14 15 16 17 18 19 20 21 22 23 24 25 26 27 28 29 30 31 32 33 34 35 36 37 38 39 40 41 42 43 44 45 46 47 48 49 50
000
AXUS43 KGID 202202
MISGRI

GID CWA HOURLY WEATHER ROUNDUP
NATIONAL WEATHER SERVICE HASTINGS NE
500 PM CDT WED AUG 20 2014

NOTE: "FAIR" INDICATES FEW OR NO CLOUDS BELOW 12,000 FEET WITH NO
SIGNIFICANT WEATHER AND/OR OBSTRUCTIONS TO VISIBILITY.

...SOUTH CENTRAL NEBRASKA...

CITY           SKY/WX    TMP DP  RH WIND       PRES   REMARKS
GRAND ISLAND   MOSUNNY   90  73  57 SE17G24   29.75F HX  98
HASTINGS       MOSUNNY   90  67  46 S16G22    29.75S HX  93
KEARNEY        MOSUNNY   90  72  55 SE13      29.75S HX  96
ORD            MOSUNNY   89  71  55 S14G26    29.73S HX  95
YORK           SUNNY     90 N/A N/A S16G23    29.76S
AURORA         SUNNY     92  74  55 S16       29.76S HX 101
LEXINGTON      MOSUNNY   92  70  49 SE14      29.73S HX  97
HOLDREGE       MOSUNNY   92  67  43 S13       29.74S HX  96
HEBRON         SUNNY     92  65  40 S16       29.76S HX  95

...NEBRASKA PANHANDLE...

CITY           SKY/WX    TMP DP  RH WIND       PRES   REMARKS
CHADRON        MOSUNNY   92  49  22 W13G21    29.73S
ALLIANCE       MOSUNNY   93  48  21 W17G28    29.80S
SCOTTSBLUFF    MOSUNNY   92  48  22 W15       29.81F
SIDNEY         PTSUNNY   89  47  23 NW13      29.85F THUNDER

...WESTERN AND NORTH CENTRAL NEBRASKA...

CITY           SKY/WX    TMP DP  RH WIND       PRES   REMARKS
VALENTINE      SUNNY     92  58  31 S13       29.72F HX  91
AINSWORTH      MOSUNNY   86  66  51 S14       29.75R
ONEILL         MOSUNNY   86  73  64 S15G22    29.75R HX  92
BROKEN BOW     MOSUNNY   93  69  45 S17G26    29.74F HX  98
IMPERIAL       SUNNY     91  56  30 NW6       29.79F
NORTH PLATTE   SUNNY     91  68  46 W8        29.75F HX  95
MCCOOK         PTSUNNY   97  60  29 S8        29.73F HX  97

...EASTERN NEBRASKA...

CITY           SKY/WX    TMP DP  RH WIND       PRES   REMARKS
NORFOLK        PTSUNNY   89  72  56 SE17G25   29.74F HX  96
SO SIOUX CITY  CLOUDY    80  73  79 SE10      29.77F
TEKAMAH        PTSUNNY   87  75  67 SE13      29.77F HX  96
COLUMBUS       SUNNY     90  72  55 S10G20    29.76S HX  96
ALBION         MOSUNNY   87  70  57 S20G26    29.75R HX  92
OMAHA EPPLEY   PTSUNNY   89  73  59 SE18      29.79S HX  97
OFFUTT AFB     MOSUNNY   90  80  72 SE16G25   29.79S HX 107
MILLARD        MOSUNNY   90  76  62 SE16G22   29.78S HX 101
LINCOLN        SUNNY     95  67  39 S17G26    29.76F HX  99
NEBRASKA CITY  SUNNY     89  71  54 SE15G23   29.80S HX  95
BEATRICE       SUNNY     94  70  45 S20       29.77F HX 100
FALLS CITY     MOSUNNY   92  72  51 SE13G22   29.80S HX  99

...NORTHERN KANSAS...

CITY           SKY/WX    TMP DP  RH WIND       PRES   REMARKS
GOODLAND       PTSUNNY   95  54  25 MISG      29.78F HX  93
HILL CITY      MOSUNNY   99  61  28 S20       29.72F HX  99
NORTON         CLEAR     99  54  22 SE14G23   29.72F HX  96
PHILLIPSBURG   SUNNY     99  61  28 S15G24    29.72S HAZE    HX  99
SMITH CENTER   MOSUNNY   97  63  32 S17G24    29.74S HX  98
BELOIT         MOSUNNY   91  70  49 SE15      29.73S HX  97
HAYS           PTSUNNY   97  64  34 S23G29    29.74S HX  99
RUSSELL        PTSUNNY   94  65  38 S20G33    29.74S HX  96
CONCORDIA      SUNNY     92  70  48 S20G28    29.76F HX  97
SALINA         SUNNY     97  68  38 S20G30    29.76F HX 102
TOPEKA         MOSUNNY   96  69  41 S12G20    29.80F HX 102



USA.gov is the U.S. government's official web portal to all federal, state and local government web resources and services.